WZZ2596 EDDN-LHBP

Flight info

Callsign WZZ2596
Flight time 1h 0m
Altitude 33000
Route RODIS1G RODIS L604 LAMSI DCT MAREG DCT ANEXA
Aircraft A320/M-SDE3FGHIRWY/LB1

Departure

Time 2026-05-04 19:07
Airport Nuremberg Airport (EDDN)

Arrival

Time 2026-05-04 20:07
Airport Budapest Liszt Ferenc International Airport (LHBP)
Time Latitude Longitude Altitude Speed Heading
2026-05-04 18:47 49.49524 11.07725 1025 ft 0 kts 188°
2026-05-04 18:52 49.49525 11.07725 1025 ft 0 kts 188°
2026-05-04 18:53 49.49527 11.07726 1025 ft 2 kts 188°
2026-05-04 18:53 49.49543 11.07730 1028 ft 2 kts 188°
2026-05-04 18:53 49.49559 11.07733 1028 ft 2 kts 188°
2026-05-04 18:53 49.49575 11.07737 1029 ft 2 kts 188°
2026-05-04 18:54 49.49591 11.07737 1027 ft 2 kts 134°
2026-05-04 18:54 49.49596 11.07729 1029 ft 0 kts 101°
2026-05-04 18:57 49.49588 11.07793 1028 ft 12 kts 101°
2026-05-04 18:57 49.49575 11.07919 1030 ft 13 kts 98°
2026-05-04 18:57 49.49561 11.08064 1030 ft 15 kts 98°
2026-05-04 18:57 49.49544 11.08230 1029 ft 16 kts 99°
2026-05-04 18:58 49.49584 11.08358 1032 ft 15 kts 15°
2026-05-04 18:58 49.49662 11.08481 1028 ft 12 kts 52°
2026-05-04 18:58 49.49672 11.08502 1030 ft 0 kts 52°
2026-05-04 18:58 49.49673 11.08502 1030 ft 0 kts 52°
2026-05-04 18:59 49.49676 11.08508 1030 ft 1 kts 49°
2026-05-04 18:59 49.49682 11.08518 1031 ft 0 kts 47°
2026-05-04 19:04 49.49683 11.08519 1031 ft 1 kts 47°
2026-05-04 19:04 49.49692 11.08532 1031 ft 3 kts 43°
2026-05-04 19:05 49.49722 11.08559 1030 ft 9 kts 21°
2026-05-04 19:05 49.49798 11.08536 1028 ft 8 kts 283°
2026-05-04 19:05 49.49798 11.08531 1028 ft 0 kts 275°
2026-05-04 19:06 49.49798 11.08527 1028 ft 5 kts 275°
2026-05-04 19:06 49.49833 11.08192 1024 ft 69 kts 278°
2026-05-04 19:06 49.49936 11.07143 1022 ft 127 kts 278°
2026-05-04 19:06 49.50096 11.05627 1316 ft 146 kts 283°
2026-05-04 19:07 49.50326 11.04151 1996 ft 140 kts 288°
2026-05-04 19:07 49.50549 11.02694 2492 ft 144 kts 285°
2026-05-04 19:07 49.50712 11.01085 2756 ft 163 kts 279°
2026-05-04 19:07 49.50855 10.99239 2992 ft 185 kts 278°
2026-05-04 19:08 49.51020 10.97150 3214 ft 207 kts 278°
2026-05-04 19:08 49.51243 10.94840 3470 ft 228 kts 287°
2026-05-04 19:08 49.52120 10.92766 3771 ft 249 kts 325°
2026-05-04 19:08 49.53776 10.91808 4262 ft 264 kts 354°
2026-05-04 19:09 49.55643 10.91741 5060 ft 271 kts
2026-05-04 19:09 49.57542 10.91975 5886 ft 277 kts
2026-05-04 19:09 49.59478 10.92262 6691 ft 283 kts
2026-05-04 19:09 49.61420 10.92890 7437 ft 289 kts 24°
2026-05-04 19:10 49.63075 10.94666 8177 ft 295 kts 49°
2026-05-04 19:10 49.64102 10.97396 8910 ft 298 kts 76°
2026-05-04 19:10 49.64285 11.00550 9638 ft 297 kts 102°
2026-05-04 19:10 49.63789 11.03655 10234 ft 305 kts 109°
2026-05-04 19:11 49.63199 11.06914 10443 ft 329 kts 109°
2026-05-04 19:11 49.62562 11.10447 10932 ft 350 kts 109°
2026-05-04 19:11 49.61919 11.14069 11770 ft 359 kts 108°
2026-05-04 19:11 49.61263 11.17815 12731 ft 365 kts 108°
2026-05-04 19:12 49.60599 11.21622 13738 ft 370 kts 108°
2026-05-04 19:12 49.59239 11.29403 15430 ft 384 kts 107°
2026-05-04 19:12 49.58530 11.33440 16174 ft 391 kts 107°
2026-05-04 19:13 49.57815 11.37497 17181 ft 394 kts 107°
2026-05-04 19:13 49.57088 11.41593 18087 ft 399 kts 107°
2026-05-04 19:13 49.56348 11.45743 18863 ft 404 kts 107°
2026-05-04 19:13 49.55598 11.49938 19616 ft 409 kts 107°
2026-05-04 19:14 49.54837 11.54178 20378 ft 414 kts 108°
2026-05-04 19:14 49.54064 11.58474 21118 ft 418 kts 108°
2026-05-04 19:14 49.53286 11.62809 21879 ft 423 kts 108°
2026-05-04 19:14 49.52494 11.67207 22617 ft 428 kts 108°
2026-05-04 19:15 49.51672 11.71634 23316 ft 432 kts 111°
2026-05-04 19:15 49.50343 11.75762 23892 ft 433 kts 126°
2026-05-04 19:15 49.48635 11.79594 24472 ft 436 kts 127°
2026-05-04 19:15 49.46922 11.83386 25019 ft 439 kts 127°
2026-05-04 19:16 49.45171 11.87247 25546 ft 442 kts 127°
2026-05-04 19:16 49.43404 11.91136 26037 ft 445 kts 127°
2026-05-04 19:16 49.41618 11.95067 26314 ft 453 kts 127°
2026-05-04 19:16 49.39792 11.99084 26441 ft 464 kts 127°
2026-05-04 19:17 49.37927 12.03187 26564 ft 474 kts 127°
2026-05-04 19:17 49.36024 12.07376 26690 ft 483 kts 127°
2026-05-04 19:17 49.34089 12.11633 26816 ft 491 kts 127°
2026-05-04 19:17 49.32120 12.15960 27018 ft 497 kts 127°
2026-05-04 19:18 49.30142 12.20293 27479 ft 496 kts 127°
2026-05-04 19:18 49.28159 12.24614 27960 ft 495 kts 127°
2026-05-04 19:18 49.26179 12.28919 28409 ft 494 kts 127°
2026-05-04 19:18 49.24204 12.33212 28871 ft 493 kts 127°
2026-05-04 19:19 49.22231 12.37492 29353 ft 491 kts 127°
2026-05-04 19:19 49.20264 12.41755 29833 ft 490 kts 127°
2026-05-04 19:19 49.18331 12.45948 30268 ft 489 kts 127°
2026-05-04 19:19 49.16375 12.50187 30678 ft 487 kts 128°
2026-05-04 19:20 49.14414 12.54426 30889 ft 491 kts 128°
2026-05-04 19:20 49.10435 12.62974 31124 ft 479 kts 128°
2026-05-04 19:20 49.08546 12.67030 31120 ft 463 kts 128°
2026-05-04 19:21 49.06667 12.71075 30933 ft 473 kts 128°
2026-05-04 19:21 49.02806 12.79377 30927 ft 483 kts 128°
2026-05-04 19:22 48.98913 12.87706 30934 ft 483 kts 128°
2026-05-04 19:22 48.94998 12.96029 30930 ft 483 kts 128°
2026-05-04 19:23 48.91109 13.04271 30928 ft 483 kts 128°
2026-05-04 19:23 48.87185 13.12569 30937 ft 484 kts 128°
2026-05-04 19:24 48.83261 13.20858 30922 ft 483 kts 128°
2026-05-04 19:24 48.79328 13.29124 30923 ft 483 kts 128°
2026-05-04 19:25 48.75394 13.37359 30926 ft 482 kts 128°
2026-05-04 19:25 48.71462 13.45579 30914 ft 481 kts 128°
2026-05-04 19:26 48.67550 13.53783 30916 ft 481 kts 126°
2026-05-04 19:26 48.64824 13.62978 30916 ft 487 kts 106°
2026-05-04 19:27 48.63558 13.73058 30920 ft 489 kts 102°
2026-05-04 19:27 48.62318 13.83175 30921 ft 489 kts 102°
2026-05-04 19:28 48.61060 13.93265 30921 ft 489 kts 102°
2026-05-04 19:28 48.60010 14.01657 30914 ft 489 kts 102°
2026-05-04 19:29 48.58544 14.13383 30920 ft 489 kts 102°
2026-05-04 19:29 48.57268 14.23464 30918 ft 489 kts 102°
2026-05-04 19:30 48.56203 14.31835 30921 ft 489 kts 102°
2026-05-04 19:30 48.54915 14.41908 30918 ft 489 kts 102°
2026-05-04 19:31 48.53609 14.51992 30917 ft 490 kts 102°
2026-05-04 19:31 48.52297 14.62080 30918 ft 490 kts 102°
2026-05-04 19:32 48.50982 14.72167 30916 ft 490 kts 102°
2026-05-04 19:32 48.49658 14.82177 30915 ft 490 kts 102°
2026-05-04 19:33 48.48311 14.92264 30924 ft 491 kts 102°
2026-05-04 19:33 48.46963 15.02352 30922 ft 491 kts 102°
2026-05-04 19:34 48.45608 15.12429 30917 ft 491 kts 102°
2026-05-04 19:34 48.44252 15.22509 30914 ft 491 kts 102°
2026-05-04 19:35 48.42883 15.32517 30920 ft 492 kts 102°
2026-05-04 19:35 48.41487 15.42587 30920 ft 492 kts 102°
2026-05-04 19:36 48.40089 15.52671 30917 ft 492 kts 102°
2026-05-04 19:36 48.38691 15.62741 30919 ft 492 kts 102°
2026-05-04 19:37 48.37278 15.72798 30916 ft 491 kts 102°
2026-05-04 19:37 48.35852 15.82835 30918 ft 491 kts 102°
2026-05-04 19:38 48.34435 15.92799 30915 ft 491 kts 102°
2026-05-04 19:38 48.33006 16.02825 30925 ft 491 kts 102°
2026-05-04 19:39 48.31565 16.12837 30928 ft 491 kts 102°
2026-05-04 19:39 48.30106 16.22847 30939 ft 492 kts 102°
2026-05-04 19:40 48.28639 16.32885 30938 ft 492 kts 102°
2026-05-04 19:40 48.27179 16.42800 30939 ft 491 kts 102°
2026-05-04 19:41 48.25704 16.52779 30947 ft 492 kts 102°
2026-05-04 19:41 48.24217 16.62800 30948 ft 492 kts 102°
2026-05-04 19:42 48.22715 16.72791 30938 ft 491 kts 102°
2026-05-04 19:42 48.21202 16.82741 30941 ft 491 kts 102°
2026-05-04 19:42 48.20447 16.87697 30778 ft 492 kts 102°
2026-05-04 19:43 48.19686 16.92686 30278 ft 488 kts 102°
2026-05-04 19:43 48.18912 16.97629 29846 ft 487 kts 104°
2026-05-04 19:43 48.18041 17.02447 29392 ft 489 kts 105°
2026-05-04 19:43 48.17114 17.07321 28840 ft 489 kts 105°
2026-05-04 19:44 48.16186 17.12221 28297 ft 490 kts 105°
2026-05-04 19:44 48.15256 17.17142 27764 ft 492 kts 105°
2026-05-04 19:44 48.14325 17.22073 27238 ft 492 kts 105°
2026-05-04 19:44 48.13230 17.26866 26736 ft 493 kts 114°
2026-05-04 19:45 48.11823 17.31561 26228 ft 494 kts 114°
2026-05-04 19:45 48.10414 17.36255 25734 ft 495 kts 114°
2026-05-04 19:45 48.09004 17.40950 25236 ft 495 kts 114°
2026-05-04 19:45 48.07612 17.45570 24777 ft 493 kts 114°
2026-05-04 19:46 48.06201 17.50230 24308 ft 490 kts 114°
2026-05-04 19:46 48.04800 17.54845 23846 ft 487 kts 115°
2026-05-04 19:46 48.03403 17.59436 23359 ft 483 kts 115°
2026-05-04 19:46 48.02013 17.63990 22817 ft 480 kts 115°
2026-05-04 19:47 48.00635 17.68501 22279 ft 476 kts 115°
2026-05-04 19:47 47.99266 17.72979 21754 ft 473 kts 115°
2026-05-04 19:47 47.97903 17.77427 21243 ft 469 kts 115°
2026-05-04 19:47 47.96552 17.81837 20734 ft 466 kts 115°
2026-05-04 19:48 47.95208 17.86213 20229 ft 462 kts 115°
2026-05-04 19:48 47.93894 17.90486 19759 ft 458 kts 115°
2026-05-04 19:48 47.92568 17.94777 19269 ft 454 kts 116°
2026-05-04 19:48 47.91249 17.99034 18793 ft 450 kts 116°
2026-05-04 19:49 47.89939 18.03257 18325 ft 447 kts 116°
2026-05-04 19:49 47.88641 18.07444 17800 ft 443 kts 116°
2026-05-04 19:49 47.87359 18.11585 17268 ft 439 kts 116°
2026-05-04 19:49 47.86084 18.15702 16739 ft 436 kts 116°
2026-05-04 19:50 47.84816 18.19781 16251 ft 432 kts 116°
2026-05-04 19:50 47.83554 18.23823 15736 ft 429 kts 116°
2026-05-04 19:50 47.82302 18.27826 15245 ft 426 kts 117°
2026-05-04 19:50 47.81047 18.31808 14745 ft 423 kts 117°
2026-05-04 19:51 47.79805 18.35754 14291 ft 420 kts 117°
2026-05-04 19:51 47.78589 18.39628 13818 ft 417 kts 117°
2026-05-04 19:51 47.77368 18.43519 13281 ft 414 kts 116°
2026-05-04 19:51 47.76158 18.47379 12763 ft 411 kts 116°
2026-05-04 19:52 47.74953 18.51214 12258 ft 408 kts 116°
2026-05-04 19:52 47.73751 18.55013 12018 ft 406 kts 117°
2026-05-04 19:52 47.72547 18.58810 12024 ft 406 kts 117°
2026-05-04 19:52 47.71357 18.62565 12029 ft 407 kts 117°
2026-05-04 19:53 47.70151 18.66370 12041 ft 407 kts 117°
2026-05-04 19:53 47.68949 18.70162 12040 ft 407 kts 117°
2026-05-04 19:53 47.67739 18.73961 12040 ft 407 kts 117°
2026-05-04 19:53 47.66527 18.77753 12041 ft 407 kts 117°
2026-05-04 19:54 47.65316 18.81534 12044 ft 407 kts 117°
2026-05-04 19:54 47.64099 18.85325 12044 ft 407 kts 117°
2026-05-04 19:54 47.62876 18.89111 12046 ft 407 kts 117°
2026-05-04 19:54 47.61653 18.92897 12052 ft 407 kts 117°
2026-05-04 19:55 47.60445 18.96630 12049 ft 407 kts 117°
2026-05-04 19:55 47.59231 19.00381 12049 ft 406 kts 117°
2026-05-04 19:55 47.58023 19.04113 11642 ft 403 kts 117°
2026-05-04 19:55 47.56815 19.07855 11150 ft 402 kts 117°
2026-05-04 19:56 47.55618 19.11579 10666 ft 400 kts 116°
2026-05-04 19:56 47.54827 19.15477 10189 ft 400 kts 98°
2026-05-04 19:56 47.54932 19.19563 9693 ft 399 kts 79°
2026-05-04 19:56 47.55934 19.23364 9169 ft 397 kts 59°
2026-05-04 19:57 47.57693 19.26408 8659 ft 380 kts 39°
2026-05-04 19:57 47.59910 19.28259 8164 ft 356 kts 18°
2026-05-04 19:57 47.62302 19.28762 7670 ft 345 kts 355°
2026-05-04 19:57 47.64575 19.28209 7192 ft 327 kts 347°
2026-05-04 19:58 47.66752 19.27497 6714 ft 314 kts 346°
2026-05-04 19:58 47.68847 19.26784 6225 ft 304 kts 343°
2026-05-04 19:58 47.70686 19.25445 5732 ft 298 kts 318°
2026-05-04 19:58 47.71950 19.23073 5296 ft 292 kts 291°
2026-05-04 19:59 47.72473 19.20205 5027 ft 285 kts 277°
2026-05-04 19:59 47.72798 19.17292 5000 ft 287 kts 276°
2026-05-04 19:59 47.73014 19.14354 4998 ft 285 kts 264°
2026-05-04 19:59 47.72480 19.11581 5002 ft 279 kts 238°
2026-05-04 20:00 47.71311 19.09361 5003 ft 279 kts 227°
2026-05-04 20:00 47.69999 19.07236 5002 ft 279 kts 226°
2026-05-04 20:00 47.68700 19.05160 4920 ft 275 kts 226°
2026-05-04 20:00 47.67441 19.03151 4794 ft 256 kts 226°
2026-05-04 20:01 47.66279 19.01288 4659 ft 237 kts 226°
2026-05-04 20:01 47.65141 18.99653 4418 ft 222 kts 211°
2026-05-04 20:01 47.63709 18.98948 4042 ft 215 kts 186°
2026-05-04 20:01 47.62210 18.99051 3999 ft 220 kts 169°
2026-05-04 20:02 47.60765 18.99864 4002 ft 225 kts 152°
2026-05-04 20:02 47.59549 19.01348 4003 ft 229 kts 136°
2026-05-04 20:02 47.58512 19.03045 4003 ft 215 kts 136°
2026-05-04 20:02 47.57543 19.04634 3985 ft 201 kts 136°
2026-05-04 20:03 47.56630 19.06123 3905 ft 192 kts 137°
2026-05-04 20:03 47.55741 19.07570 3703 ft 189 kts 137°
2026-05-04 20:03 47.54867 19.08993 3499 ft 185 kts 137°
2026-05-04 20:03 47.54008 19.10391 3240 ft 180 kts 137°
2026-05-04 20:04 47.53225 19.11668 3037 ft 166 kts 137°
2026-05-04 20:04 47.52460 19.12910 2794 ft 162 kts 137°
2026-05-04 20:04 47.51698 19.14147 2574 ft 163 kts 137°
2026-05-04 20:04 47.50938 19.15381 2366 ft 162 kts 137°
2026-05-04 20:05 47.50198 19.16584 2147 ft 151 kts 137°
2026-05-04 20:05 47.49513 19.17698 1961 ft 143 kts 138°
2026-05-04 20:05 47.48851 19.18772 1778 ft 140 kts 138°
2026-05-04 20:05 47.48197 19.19830 1595 ft 139 kts 137°
2026-05-04 20:06 47.47543 19.20890 1411 ft 139 kts 137°
2026-05-04 20:06 47.46892 19.21945 1224 ft 139 kts 134°
2026-05-04 20:06 47.46241 19.23001 1042 ft 139 kts 133°
2026-05-04 20:06 47.45601 19.24070 852 ft 139 kts 131°
2026-05-04 20:07 47.44961 19.25098 661 ft 135 kts 132°
2026-05-04 20:07 47.44329 19.26094 492 ft 130 kts 131°
2026-05-04 20:07 47.43827 19.26932 489 ft 85 kts 132°
2026-05-04 20:07 47.43536 19.27398 483 ft 49 kts 133°
2026-05-04 20:08 47.43295 19.27777 471 ft 52 kts 133°
2026-05-04 20:08 47.43050 19.28174 460 ft 54 kts 131°
2026-05-04 20:08 47.42853 19.28335 450 ft 26 kts 226°
2026-05-04 20:08 47.42777 19.28225 449 ft 15 kts 223°
2026-05-04 20:09 47.42767 19.28079 452 ft 15 kts 300°
2026-05-04 20:09 47.42829 19.27964 456 ft 14 kts 309°
2026-05-04 20:09 47.42895 19.27853 457 ft 15 kts 318°
2026-05-04 20:09 47.42965 19.27747 462 ft 14 kts 311°
2026-05-04 20:10 47.43033 19.27631 463 ft 16 kts 310°
2026-05-04 20:10 47.43120 19.27494 468 ft 18 kts 313°
2026-05-04 20:10 47.43207 19.27350 472 ft 20 kts 315°
2026-05-04 20:10 47.43295 19.27210 474 ft 18 kts 310°
2026-05-04 20:11 47.43307 19.27041 476 ft 19 kts 250°
2026-05-04 20:11 47.43340 19.26870 478 ft 18 kts 312°
2026-05-04 20:11 47.43429 19.26727 478 ft 20 kts 312°
2026-05-04 20:11 47.43482 19.26614 481 ft 7 kts 231°
2026-05-04 20:12 47.43475 19.26605 482 ft 2 kts 220°
2026-05-04 20:12 47.43456 19.26581 478 ft 5 kts 222°
2026-05-04 20:12 47.43449 19.26571 478 ft 0 kts 222°